| time (UTC) | temp F | wind direction | speed MPH | gust MPH | rain 1hr in | rain 24hr in | rain mn in | humidity % | barometer mb |
| 20260902002748 | 76 | 186 | 0.0 | 1.0 | 0.00 | 0.00 | 0.00 | 94 | 993.2 |
| 20260902001243 | 76 | 205 | 1.0 | 1.0 | 0.00 | 0.00 | 0.00 | 92 | 993.5 |
| 20260901235738 | 76 | 221 | 0.0 | 1.0 | 0.00 | 0.00 | 0.00 | 91 | 994.1 |
| 20260901234233 | 77 | 242 | 1.0 | 3.0 | 0.00 | 0.00 | 0.00 | 90 | 994.1 |
| 20260901232730 | 78 | 274 | 5.0 | 6.0 | 0.00 | 0.00 | 0.00 | 87 | 993.9 |
| 20260901231229 | 80 | 173 | 3.0 | 6.0 | 0.00 | 0.00 | 0.00 | 85 | 994.3 |
| 20260901225726 | 80 | 208 | 3.0 | 6.0 | 0.00 | 0.00 | 0.00 | 86 | 994.5 |
| 20260901224224 | 81 | 228 | 1.0 | 2.0 | 0.00 | 0.00 | 0.00 | 85 | 994.0 |
| 20260901222722 | 81 | 196 | 1.0 | 4.0 | 0.00 | 0.00 | 0.00 | 84 | 994.0 |
| 20260901221221 | 82 | 178 | 1.0 | 4.0 | 0.00 | 0.00 | 0.00 | 83 | 993.6 |
| 20260901215719 | 83 | 200 | 3.0 | 6.0 | 0.00 | 0.00 | 0.00 | 82 | 994.5 |
| 20260901214217 | 83 | 241 | 2.0 | 6.0 | 0.00 | 0.00 | 0.00 | 81 | 994.3 |
| 20260901212718 | 83 | 278 | 5.0 | 6.0 | 0.00 | 0.00 | 0.00 | 79 | 994.4 |
| 20260901211216 | 84 | 237 | 3.0 | 4.0 | 0.00 | 0.00 | 0.00 | 77 | 994.4 |
| 20260901205714 | 86 | 239 | 6.0 | 9.0 | 0.00 | 0.00 | 0.00 | 75 | 994.3 |
| 20260901204211 | 86 | 298 | 6.0 | 8.0 | 0.00 | 0.00 | 0.00 | 75 | 994.1 |
| 20260901202706 | 87 | 259 | 3.0 | 8.0 | 0.00 | 0.00 | 0.00 | 74 | 994.0 |
| 20260901201203 | 88 | 257 | 8.0 | 10.0 | 0.00 | 0.00 | 0.00 | 73 | 994.1 |
| 20260901195701 | 87 | 236 | 5.0 | 6.0 | 0.00 | 0.00 | 0.00 | 76 | 994.0 |
| 20260901194158 | 89 | 224 | 7.0 | 10.0 | 0.00 | 0.00 | 0.00 | 74 | 993.9 |
| 20260901192654 | 90 | 255 | 3.0 | 9.0 | 0.00 | 0.00 | 0.00 | 73 | 993.9 |
| 20260901191153 | 88 | 178 | 2.0 | 6.0 | 0.00 | 0.00 | 0.00 | 75 | 993.9 |
| 20260901185653 | 88 | 202 | 3.0 | 4.0 | 0.00 | 0.00 | 0.00 | 75 | 994.3 |
| 20260901184148 | 86 | 267 | 4.0 | 7.0 | 0.00 | 0.00 | 0.00 | 78 | 994.6 |
| 20260901182646 | 86 | 187 | 3.0 | 4.0 | 0.00 | 0.00 | 0.00 | 78 | 994.4 |
| 20260901181145 | 84 | 215 | 3.0 | 4.0 | 0.00 | 0.00 | 0.00 | 81 | 994.1 |
| 20260901175644 | 84 | 197 | 1.0 | 4.0 | 0.00 | 0.00 | 0.00 | 81 | 994.4 |
| 20260901174142 | 83 | 257 | 3.0 | 10.0 | 0.00 | 0.00 | 0.00 | 82 | 995.1 |
| 20260901172639 | 85 | 239 | 2.0 | 6.0 | 0.00 | 0.00 | 0.00 | 79 | 994.9 |
| 20260901171136 | 86 | 285 | 3.0 | 8.0 | 0.00 | 0.00 | 0.00 | 77 | 994.8 |
| 20260901165636 | 85 | 199 | 2.0 | 8.0 | 0.00 | 0.00 | 0.00 | 79 | 994.7 |
| 20260901164134 | 84 | 244 | 4.0 | 6.0 | 0.00 | 0.00 | 0.00 | 81 | 994.5 |
| 20260901162630 | 85 | 279 | 5.0 | 8.0 | 0.00 | 0.00 | 0.00 | 80 | 994.6 |
| 20260901161127 | 86 | 234 | 3.0 | 4.0 | 0.00 | 0.00 | 0.00 | 79 | 994.5 |
| 20260901155623 | 85 | 293 | 5.0 | 7.0 | 0.00 | 0.00 | 0.00 | 80 | 994.5 |
| 20260901154120 | 83 | 264 | 4.0 | 6.0 | 0.00 | 0.00 | 0.00 | 81 | 994.7 |
| 20260901152616 | 85 | 279 | 2.0 | 4.0 | 0.00 | 0.00 | 0.00 | 79 | 994.5 |
| 20260901151115 | 84 | 282 | 4.0 | 8.0 | 0.00 | 0.00 | 0.00 | 80 | 994.4 |
| 20260901145612 | 82 | 264 | 3.0 | 6.0 | 0.00 | 0.00 | 0.00 | 82 | 994.5 |
| 20260901144108 | 82 | 207 | 1.0 | 3.0 | 0.00 | 0.00 | 0.00 | 83 | 994.7 |
| 20260901142607 | 83 | 257 | 4.0 | 8.0 | 0.00 | 0.00 | 0.00 | 82 | 994.8 |
| 20260901141102 | 82 | 171 | 1.0 | 3.0 | 0.00 | 0.00 | 0.00 | 84 | 994.6 |
| 20260901135600 | 81 | 190 | 3.0 | 7.0 | 0.00 | 0.00 | 0.00 | 84 | 994.5 |
| 20260901134058 | 81 | 223 | 2.0 | 3.0 | 0.00 | 0.00 | 0.00 | 84 | 994.6 |
| 20260901132556 | 79 | 185 | 0.0 | 2.0 | 0.00 | 0.00 | 0.00 | 87 | 994.6 |
| 20260901131057 | 78 | 186 | 0.0 | 3.0 | 0.00 | 0.00 | 0.00 | 87 | 994.5 |
| 20260901125554 | 76 | 181 | 2.0 | 2.0 | 0.00 | 0.00 | 0.00 | 91 | 994.4 |
| 20260901124050 | 74 | 189 | 2.0 | 3.0 | 0.00 | 0.00 | 0.00 | 94 | 994.5 |
| 20260901122549 | 73 | 177 | 1.0 | 3.0 | 0.00 | 0.00 | 0.00 | 94 | 994.3 |
| 20260901121044 | 73 | 209 | 0.0 | 2.0 | 0.00 | 0.00 | 0.00 | 95 | 994.2 |
| 20260901115541 | 72 | 185 | 0.0 | 2.0 | 0.00 | 0.00 | 0.00 | 96 | 994.1 |
| 20260901114038 | 72 | 218 | 0.0 | 0.0 | 0.00 | 0.00 | 0.00 | 97 | 994.0 |
| 20260901112538 | 72 | 197 | 0.0 | 2.0 | 0.00 | 0.00 | 0.00 | 97 | 993.7 |
| 20260901111036 | 72 | 210 | 0.0 | 2.0 | 0.00 | 0.00 | 0.00 | 97 | 993.7 |
| 20260901105531 | 72 | 239 | 0.0 | 2.0 | 0.00 | 0.00 | 0.00 | 97 | 993.8 |
| 20260901104027 | 72 | 192 | 2.0 | 3.0 | 0.00 | 0.00 | 0.00 | 96 | 993.6 |
| 20260901102523 | 72 | 228 | 1.0 | 2.0 | 0.00 | 0.00 | 0.00 | 97 | 993.7 |
| 20260901101019 | 72 | 193 | 2.0 | 2.0 | 0.00 | 0.00 | 0.00 | 97 | 993.6 |
| 20260901095517 | 72 | 187 | 1.0 | 1.0 | 0.00 | 0.00 | 0.00 | 98 | 993.5 |
| 20260901094015 | 72 | 178 | 0.0 | 0.0 | 0.00 | 0.00 | 0.00 | 98 | 993.5 |
| 20260901092512 | 72 | 188 | 0.0 | 0.0 | 0.00 | 0.00 | 0.00 | 98 | 993.6 |
| 20260901091009 | 72 | 194 | 0.0 | 0.0 | 0.00 | 0.00 | 0.00 | 98 | 993.5 |
| 20260901085506 | 72 | 197 | 0.0 | 0.0 | 0.00 | 0.00 | 0.00 | 97 | 993.3 |
| 20260901084006 | 73 | 193 | 0.0 | 1.0 | 0.00 | 0.00 | 0.00 | 96 | 993.2 |
| 20260901082505 | 73 | 214 | 0.0 | 1.0 | 0.00 | 0.00 | 0.00 | 96 | 993.4 |
| 20260901081002 | 73 | 195 | 0.0 | 0.0 | 0.00 | 0.00 | 0.00 | 96 | 993.5 |
| 20260901075457 | 74 | 191 | 0.0 | 0.0 | 0.00 | 0.00 | 0.00 | 96 | 993.4 |
| 20260901073952 | 74 | 187 | 1.0 | 3.0 | 0.00 | 0.00 | 0.00 | 95 | 993.3 |
| 20260901072449 | 74 | 190 | 1.0 | 1.0 | 0.00 | 0.00 | 0.00 | 95 | 993.3 |
| 20260901070949 | 75 | 188 | 0.0 | 2.0 | 0.00 | 0.00 | 0.00 | 94 | 993.2 |
| 20260901065445 | 75 | 194 | 1.0 | 3.0 | 0.00 | 0.00 | 0.00 | 94 | 993.5 |
| 20260901063945 | 75 | 168 | 1.0 | 1.0 | 0.00 | 0.00 | 0.00 | 94 | 993.3 |
| 20260901062444 | 74 | 206 | 0.0 | 0.0 | 0.00 | 0.00 | 0.00 | 95 | 993.5 |
| 20260901060942 | 74 | 191 | 0.0 | 1.0 | 0.00 | 0.00 | 0.00 | 94 | 993.6 |
| 20260901055440 | 75 | 197 | 0.0 | 0.0 | 0.00 | 0.00 | 0.00 | 93 | 993.4 |
| 20260901053935 | 75 | 193 | 0.0 | 1.0 | 0.00 | 0.00 | 0.00 | 92 | 993.7 |
| 20260901052432 | 76 | 227 | 1.0 | 1.0 | 0.00 | 0.00 | 0.00 | 92 | 993.7 |
| 20260901050927 | 76 | 220 | 2.0 | 2.0 | 0.00 | 0.00 | 0.00 | 91 | 993.6 |
| 20260901045423 | 76 | 211 | 2.0 | 3.0 | 0.00 | 0.00 | 0.00 | 90 | 993.6 |
| 20260901043922 | 76 | 221 | 2.0 | 3.0 | 0.00 | 0.00 | 0.00 | 89 | 993.6 |
| 20260901042418 | 77 | 203 | 2.0 | 3.0 | 0.00 | 0.00 | 0.00 | 89 | 993.6 |
| 20260901040913 | 76 | 230 | 2.0 | 3.0 | 0.00 | 0.00 | 0.00 | 88 | 993.7 |
| 20260901035412 | 75 | 188 | 0.0 | 1.0 | 0.00 | 0.24 | 0.24 | 91 | 993.8 |
| 20260901033912 | 74 | 199 | 0.0 | 0.0 | 0.00 | 0.24 | 0.24 | 92 | 994.0 |
| 20260901032409 | 75 | 196 | 0.0 | 1.0 | 0.00 | 0.24 | 0.24 | 91 | 993.8 |
| 20260901030906 | 75 | 47 | 0.0 | 0.0 | 0.00 | 0.24 | 0.24 | 90 | 993.9 |
| 20260901025401 | 76 | 198 | 0.0 | 1.0 | 0.00 | 0.24 | 0.24 | 88 | 993.6 |
| 20260901023900 | 76 | 210 | 2.0 | 2.0 | 0.00 | 0.24 | 0.24 | 87 | 993.2 |
| 20260901022358 | 77 | 198 | 2.0 | 4.0 | 0.00 | 0.24 | 0.24 | 86 | 993.1 |
| 20260901020855 | 77 | 125 | 3.0 | 6.0 | 0.00 | 0.24 | 0.24 | 86 | 993.3 |
| 20260901015352 | 76 | 216 | 3.0 | 4.0 | 0.00 | 0.24 | 0.24 | 87 | 993.6 |
| 20260901013848 | 77 | 193 | 1.0 | 3.0 | 0.00 | 0.24 | 0.24 | 85 | 994.0 |
| 20260901012346 | 78 | 174 | 2.0 | 4.0 | 0.00 | 0.24 | 0.24 | 83 | 993.3 |
| 20260901010842 | 77 | 209 | 1.0 | 2.0 | 0.00 | 0.24 | 0.24 | 84 | 993.6 |
| 20260901005343 | 78 | 194 | 1.0 | 2.0 | 0.00 | 0.24 | 0.24 | 83 | 993.4 |
| 20260901003838 | 78 | 175 | 2.0 | 3.0 | 0.00 | 0.24 | 0.24 | 81 | 993.4 |